Location: Newark
(0.5300°S, 127.4800°E)
Time: 06:01:14
(UTC+00:00)

A-11 Canister half - Pass Details

Date: 21 September 2019
Orbit: 1514 x 1686 km, 47.2° (Epoch: 23 October)

Event Time Altitude Azimuth Distance (km) Brightness Sun altitude
Rises 11:21:23 0° 301° (WNW) 4,748 12.4 -29.5°
Reaches altitude 10° 11:24:43 10° 294° (WNW) 3,790 11.8 -30.4°
Maximum altitude 11:33:27 39° 229° (SW) 2,292 10.1 -32.5°
Enters shadow 11:42:12 11° 165° (SSE) 3,827 10.9 -34.7°
Drops below altitude 10° 11:42:31 10° 164° (SSE) 3,915 - -34.8°
Sets 11:46:04 0° 156° (SSE) 4,920 - -35.7°
